Estación de Purranque
Ultimos registro cada 15 minutos 51
| N° | Estación | Fecha / Hora | Temperatura | Humedad | Lluvia | Velocidad | Dirección | Radiación | Presion |
| 51 | Purranque | 02-05-2026 12:30 | 10,8 | 77,4 | 0 | 1,3 | 164 | 579,4 | 1010 |
| 50 | Purranque | 02-05-2026 12:15 | 10,2 | 79 | 0 | 1 | 177 | 565,6 | 1010,2 |
| 49 | Purranque | 02-05-2026 12:00 | 9,6 | 84,9 | 0 | 1,3 | 201 | 503,1 | 1010,6 |
| 48 | Purranque | 02-05-2026 11:45 | 9,9 | 87,1 | 0 | 1 | 164 | 576,9 | 1010,8 |
| 47 | Purranque | 02-05-2026 11:30 | 8,7 | 87,7 | 0 | 1 | 212 | 606,9 | 1011 |
| 46 | Purranque | 02-05-2026 11:15 | 8,3 | 88,7 | 0 | 1 | 257 | 576,9 | 1011,2 |
| 45 | Purranque | 02-05-2026 11:00 | 6,9 | 94 | 0 | 1,3 | 257 | 386,9 | 1011,3 |
| 44 | Purranque | 02-05-2026 10:45 | 5,8 | 100 | 0 | 0,7 | 292 | 605,6 | 1011 |
| 43 | Purranque | 02-05-2026 10:30 | 4,4 | 100 | 0 | 0,7 | 306 | 274,4 | 1011,2 |
| 42 | Purranque | 02-05-2026 10:15 | 3,4 | 100 | 0 | 0,3 | 319 | 210,6 | 1011,5 |
| 41 | Purranque | 02-05-2026 10:00 | 2,7 | 100 | 0 | 0 | 154 | 175,6 | 1011,6 |
| 40 | Purranque | 02-05-2026 09:45 | 2,1 | 100 | 0 | 0 | 136 | 175,6 | 1011,7 |
| 39 | Purranque | 02-05-2026 09:30 | 0,8 | 100 | 0 | 0 | 136 | 240,6 | 1011,8 |
| 38 | Purranque | 02-05-2026 09:15 | 0,2 | 100 | 0 | 0 | 136 | 134,4 | 1012,3 |
| 37 | Purranque | 02-05-2026 09:00 | -0,5 | 100 | 0 | 0 | 136 | 246,9 | 1012,2 |
| 36 | Purranque | 02-05-2026 08:45 | -1,3 | 100 | 0 | 0 | 136 | 190,6 | 1012,4 |
| 35 | Purranque | 02-05-2026 08:30 | -2 | 100 | 0 | 0 | 136 | 98,1 | 1012,2 |
| 34 | Purranque | 02-05-2026 08:15 | -2,5 | 100 | 0 | 0 | 136 | 55,6 | 1012,2 |
| 33 | Purranque | 02-05-2026 08:00 | -2,7 | 100 | 0 | 0 | 136 | 25,6 | 1012,1 |
| 32 | Purranque | 02-05-2026 07:45 | -3,3 | 99,9 | 0 | 0 | 136 | 5,6 | 1012,3 |
| 31 | Purranque | 02-05-2026 07:30 | -3,1 | 100 | 0 | 0 | 136 | 0,6 | 1012,5 |
| 30 | Purranque | 02-05-2026 07:15 | -3,1 | 100 | 0 | 0 | 136 | 0,6 | 1012,7 |
| 29 | Purranque | 02-05-2026 07:00 | -2,7 | 100 | 0 | 0 | 136 | 0,6 | 1012,8 |
| 28 | Purranque | 02-05-2026 06:45 | -3,1 | 100 | 0 | 0 | 136 | 0,6 | 1012,8 |
| 27 | Purranque | 02-05-2026 06:30 | -3,3 | 100 | 0 | 0 | 136 | 0,6 | 1012,9 |
| 26 | Purranque | 02-05-2026 06:15 | -3 | 100 | 0 | 0 | 136 | 0,6 | 1013,2 |
| 25 | Purranque | 02-05-2026 06:00 | -2,8 | 100 | 0 | 0 | 136 | 0,6 | 1013,5 |
| 24 | Purranque | 02-05-2026 05:45 | -2,6 | 100 | 0 | 0 | 136 | 0,6 | 1013,6 |
| 23 | Purranque | 02-05-2026 05:30 | -2,2 | 100 | 0 | 0 | 136 | 0,6 | 1013,8 |
| 22 | Purranque | 02-05-2026 05:15 | -2,5 | 100 | 0 | 0 | 136 | 0,6 | 1013,9 |
| 21 | Purranque | 02-05-2026 05:00 | -2,4 | 100 | 0 | 0 | 136 | 0,6 | 1014,1 |
| 20 | Purranque | 02-05-2026 04:45 | -2,2 | 100 | 0 | 0 | 139 | 0,6 | 1014,1 |
| 19 | Purranque | 02-05-2026 04:30 | -2,2 | 100 | 0 | 0 | 168 | 0,6 | 1014,5 |
| 18 | Purranque | 02-05-2026 04:15 | -2,6 | 100 | 0 | 0 | 168 | 0,6 | 1014,7 |
| 17 | Purranque | 02-05-2026 04:00 | -2,8 | 100 | 0 | 0 | 181 | 0,6 | 1014,8 |
| 16 | Purranque | 02-05-2026 03:45 | -2,7 | 100 | 0 | 0 | 184 | 0,6 | 1015,1 |
| 15 | Purranque | 02-05-2026 03:30 | -2,8 | 100 | 0 | 0 | 184 | 0,6 | 1015,3 |
| 14 | Purranque | 02-05-2026 03:15 | -2,5 | 100 | 0 | 0 | 188 | 0,6 | 1015,5 |
| 13 | Purranque | 02-05-2026 03:00 | -2,3 | 100 | 0 | 0 | 190 | 0,6 | 1015,5 |
| 12 | Purranque | 02-05-2026 02:45 | -2,4 | 100 | 0 | 0 | 190 | 0,6 | 1015,6 |
| 11 | Purranque | 02-05-2026 02:30 | -2,4 | 100 | 0 | 0 | 168 | 0,6 | 1015,6 |
| 10 | Purranque | 02-05-2026 02:15 | -2,2 | 100 | 0 | 0 | 145 | 0,6 | 1015,6 |
| 9 | Purranque | 02-05-2026 02:00 | -2 | 100 | 0 | 0 | 145 | 0,6 | 1015,6 |
| 8 | Purranque | 02-05-2026 01:45 | -1,7 | 100 | 0 | 0 | 145 | 0,6 | 1015,7 |
| 7 | Purranque | 02-05-2026 01:30 | -1,3 | 100 | 0 | 0 | 145 | 0,6 | 1015,7 |
| 6 | Purranque | 02-05-2026 01:15 | -1,5 | 100 | 0 | 0 | 145 | 0,6 | 1015,9 |
| 5 | Purranque | 02-05-2026 01:00 | -1,3 | 100 | 0 | 0,3 | 140 | 0,6 | 1016 |
| 4 | Purranque | 02-05-2026 00:45 | -1,1 | 100 | 0 | 0 | 174 | 0,6 | 1016,1 |
| 3 | Purranque | 02-05-2026 00:30 | -1,4 | 100 | 0 | 0 | 177 | 0,6 | 1016,3 |
| 2 | Purranque | 02-05-2026 00:15 | -0,9 | 100 | 0 | 0 | 177 | 0,6 | 1016,5 |
| 1 | Purranque | 02-05-2026 00:00 | -0,5 | 100 | 0 | 0 | 177 | 0,6 | 1016,5 |